Weather History for KCMA - November, 2012

Change the Weather History Date:

Friday, November 23, 2012

  Actual Average Record
Temperature  
Mean Temperature 57 °F 57 °F  
Max Temperature 66 °F 69 °F 88 °F (1950)
Min Temperature 48 °F 45 °F 35 °F (1952)
Degree Days  
Heating Degree Days 8 8  
Month to date heating degree days 117 146  
Since 1 July heating degree days 192 269  
Cooling Degree Days 0 0  
Month to date cooling degree days 21 13  
Year to date cooling degree days 387 329  
Growing Degree Days 7 (Base 50)    
Moisture  
Dew Point 52 °F    
Average Humidity 87    
Maximum Humidity 100    
Minimum Humidity 73    
Precipitation  
Precipitation 0.00 in 0.04 in 0.54 in (1973)
Month to date precipitation 0.51 1.11  
Year to date precipitation 6.23 12.96  
Since 1 July precipitation 0.55 1.98  
Sea Level Pressure  
Sea Level Pressure 30.13 in    
Wind  
Wind Speed 3 mph (West)    
Max Wind Speed 8 mph    
Max Gust Speed 14 mph    
Visibility 3 miles    
Events Fog    
T = Trace of Precipitation, MM = Missing Value Source: NWS Daily Summary

Daily Weather History Graph

Daily Weather History Graph

Search for Another Location

Airport or City:

Trip Planner

Search our weather history database for the weather conditions in past years. The results will help you decide how hot, cold, wet, or windy it might be!

Date:

Astronomy

Nov. 23, 2012 Rise Set
Actual Time 6:37 AM PST 4:48 PM PST
Civil Twilight 6:10 AM PST 5:15 PM PST
Nautical Twilight 5:39 AM PST 5:46 PM PST
Astronomical Twilight 5:09 AM PST 6:16 PM PST
Moon 1:56 PM PST (11/23) 2:11 AM PST (11/23)
Length of Visible Light 11h 05m
Length of Day
10h 10m
Waxing Gibbous, 80% of the Moon is Illuminated
Nov 23
Waxing Gibbous
Nov 28
Full
Dec 6
Last Quarter
Dec 13
New
Dec 19
First Quarter

Hourly Weather History & Observations

Time (PST) Temp. Dew Point Humidity Pressure Visibility Wind Dir Wind Speed Gust Speed Precip Events Conditions
12:29 AM 55.4 °F 51.8 °F 88% 30.11 in 1.5 mi NW 6.9 mph - N/A   Partly Cloudy
12:31 AM 55.4 °F 51.8 °F 88% 30.11 in 0.8 mi NNW 6.9 mph - N/A   Mist
12:55 AM 55.0 °F 53.1 °F 93% 30.14 in 0.2 mi NW 3.5 mph - N/A Fog Fog
1:55 AM 55.0 °F 53.1 °F 93% 30.14 in 0.2 mi NNW 5.8 mph - N/A Fog Fog
2:55 AM 55.0 °F 53.1 °F 93% 30.14 in 0.2 mi West 5.8 mph - 0.01 in Fog Fog
3:55 AM 54.0 °F 52.0 °F 93% 30.14 in 0.2 mi Calm Calm - N/A Fog Fog
4:55 AM 53.1 °F 52.0 °F 96% 30.14 in 0.2 mi ENE 5.8 mph - N/A Fog Fog
5:55 AM 53.1 °F 51.1 °F 93% 30.14 in 0.2 mi Calm Calm - 0.01 in Fog Fog
6:55 AM 52.0 °F 51.1 °F 97% 30.16 in 0.2 mi Calm Calm - N/A Fog Fog
7:55 AM 52.0 °F 51.1 °F 97% 30.19 in 0.2 mi Calm Calm - N/A Fog Fog
8:55 AM 53.1 °F 52.0 °F 96% 30.20 in 0.2 mi Calm Calm - N/A Fog Fog
9:36 AM 53.6 °F 53.6 °F 100% 30.17 in 1.8 mi Calm Calm - N/A   Overcast
9:55 AM 55.0 °F 53.1 °F 93% 30.19 in 1.8 mi Calm Calm - N/A   Overcast
10:28 AM 57.2 °F 55.4 °F 94% 30.16 in 5.0 mi Calm Calm - 0.00 in   Scattered Clouds
10:55 AM 62.1 °F 55.9 °F 80% 30.17 in 7.0 mi Variable 3.5 mph - 0.00 in   Partly Cloudy
11:55 AM 66.0 °F 57.0 °F 73% 30.15 in 7.0 mi SSW 4.6 mph - N/A   Clear
12:55 PM 64.9 °F 55.9 °F 73% 30.13 in 8.0 mi SSW 5.8 mph - N/A   Clear
1:55 PM 64.0 °F 55.0 °F 73% 30.12 in 7.0 mi South 4.6 mph - N/A   Clear
2:55 PM 62.1 °F 55.0 °F 78% 30.11 in 6.0 mi SSW 6.9 mph - N/A   Haze
3:55 PM 60.1 °F 54.0 °F 80% 30.12 in 5.0 mi SSW 3.5 mph - N/A   Haze
4:55 PM 59.0 °F 54.0 °F 83% 30.11 in 4.0 mi Calm Calm - N/A   Haze
5:55 PM 57.0 °F 53.1 °F 87% 30.11 in 4.0 mi Calm Calm - N/A   Clear
6:55 PM 54.0 °F 51.1 °F 90% 30.12 in 1.5 mi West 5.8 mph - N/A   Partly Cloudy
6:57 PM 53.6 °F 51.8 °F 94% 30.09 in 0.8 mi WNW 5.8 mph - N/A   Mist
7:39 PM 53.6 °F 51.8 °F 94% 30.09 in 2.0 mi Calm Calm - N/A   Mostly Cloudy
7:42 PM 53.6 °F 51.8 °F 94% 30.09 in 2.0 mi Calm Calm - N/A   Scattered Clouds
7:55 PM 53.1 °F 51.1 °F 93% 30.12 in 1.2 mi WNW 8.1 mph - N/A   Partly Cloudy
8:01 PM 53.6 °F 51.8 °F 94% 30.09 in 0.8 mi WNW 6.9 mph - N/A   Mist
8:46 PM 50.0 °F 48.2 °F 94% 30.10 in 2.5 mi Calm Calm - N/A   Mostly Cloudy
8:48 PM 50.0 °F 48.2 °F 94% 30.10 in 4.0 mi Calm Calm - N/A   Scattered Clouds
8:53 PM 51.8 °F 48.2 °F 88% 30.10 in 2.5 mi Calm Calm - N/A   Mostly Cloudy
8:55 PM 51.1 °F 48.0 °F 89% 30.13 in 1.0 mi Calm Calm - N/A   Overcast
9:02 PM 51.8 °F 48.2 °F 88% 30.10 in 0.2 mi Calm Calm - N/A Fog Fog
9:48 PM 51.8 °F 48.2 °F 88% 30.09 in 2.0 mi Calm Calm - N/A   Partly Cloudy
9:55 PM 51.1 °F 48.9 °F 92% 30.12 in 5.0 mi Calm Calm - N/A   Clear
10:55 PM 48.9 °F 46.9 °F 93% 30.12 in 5.0 mi Calm Calm - N/A   Clear
11:55 PM 51.1 °F 48.0 °F 89% 30.11 in 6.0 mi Calm Calm - N/A   Clear